Regional Weather Roundup
Issued by NWS

Home | Current Version | Previous Version | Text Only | Print | Product List | Glossary Off
Versions: 1 2 3 4 5 6 7 8 9 10 11 12 13 14 15 16 17 18 19 20 21 22 23 24 25 26 27 28 29 30 31 32 33 34 35 36 37 38 39 40 41 42 43 44 45 46 47 48 49 50

000
ASUS44 KMEG 040600
RWRTN
TENNESSEE HOURLY STATE WEATHER ROUNDUP
NATIONAL WEATHER SERVICE MEMPHIS TN
100 AM CDT TUE AUG 04 2015

TNZ002-004-019-021-049-052-054-088>092-040700-
WEST TENNESSEE

CITY           SKY/WX    TMP DP  RH WIND       PRES   REMARKS
MEMPHIS INTL   MOCLDY    82  69  64 CALM      29.94S
NWS MEMPHIS      N/A     76 N/A N/A MISG        N/A
JACKSON        PTCLDY    74  71  91 CALM      29.94S FOG
DYERSBURG        N/A    N/A N/A N/A MISG        N/A
PARIS          CLEAR     70  66  88 CALM      29.95S
LEXINGTON      CLEAR     72  72 100 CALM      29.95S
$$

TNZ008-025-027-028-033-062-065-066-040700-
NORTH MIDDLE TENNESSEE

CITY           SKY/WX    TMP DP  RH WIND       PRES   REMARKS
NASHVILLE      CLEAR     77  70  79 CALM      29.96R
CLARKSVILLE    CLEAR     72  69  90 CALM      29.94S
CROSSVILLE     CLEAR     69  66  90 CALM      30.04S FOG
$$

TNZ061-075-076-078-094-096-097-040700-
SOUTH MIDDLE TENNESSEE

CITY           SKY/WX    TMP DP  RH WIND       PRES   REMARKS
SHELBYVILLE    CLEAR     72  72 100 E3        29.98S
$$

TNZ017-018-042-046-047-040700-
NORTHEAST TENNESSEE

CITY           SKY/WX    TMP DP  RH WIND       PRES   REMARKS
TRI CITIES     PTCLDY    65  61  87 CALM      30.02S
$$

TNZ012-013-036-069-073-074-040700-
CENTRAL EAST TENNESSEE

CITY           SKY/WX    TMP DP  RH WIND       PRES   REMARKS
KNOXVILLE      CLEAR     72  64  76 CALM      29.98S
OAK RIDGE      CLEAR     72  68  87 CALM      29.99F
GATLINBURG     CLEAR     66  61  82 CALM      29.99S
$$

TNZ083-085-099-040700-
SOUTHEAST TENNESSEE

CITY           SKY/WX    TMP DP  RH WIND       PRES   REMARKS
CHATTANOOGA    CLEAR     75  67  76 CALM      29.97S
$$

SKY/WX REPORTED AS FAIR MEANS FEW OR NO CLOUDS BELOW
12 THOUSAND FEET.



USA.gov is the U.S. government's official web portal to all federal, state and local government web resources and services.